{"data":{"norad_id":60485,"epoch":"2026-09-22T17:25:08.539392Z","epoch_age_seconds":93944,"freshness":"FRESH","line1":"1 60485U 24149T   26265.72579328  .00005543  00000+0  17094-3 0  9997","line2":"2 60485  97.3762 346.5262 0001105 300.1595  59.9538 15.34003034117031","mean_motion":15.34003034,"eccentricity":0.0001105,"inclination_deg":97.3762,"raan_deg":346.5262,"arg_perigee_deg":300.1595,"mean_anomaly_deg":59.9538,"bstar":0.00017094,"rev_number":11703,"period_min":93.872043801968,"perigee_km":463.12731799478,"apogee_km":464.63940449461,"semimajor_km":6842.0203612447,"source":"CELESTRAK","updated_at":"2026-09-23T09:00:20.654829Z"}}